Tracking 19846 objects as of 18-Sep-2019
HD Live streaming from Space Station
objects crossing your sky now

THORAD DELTA 1 DEB

Track THORAD DELTA 1 DEB now!
10-day predictions


NORAD ID: 10392
Int'l Code: 1974-089EH
Perigee: 1,390.1 km
Apogee: 1,469.4 km
Inclination: 101.6 °
Period: 114.3 minutes
Semi major axis: 7800 km
RCS: 0.0162 m2 (small)
Launch date: November 15, 1974
Source: United States (US)
Launch site: AIR FORCE WESTERN TEST RANGE (AFWTR)

Note: This is SATELLITE DEBRIS
aabbcc
Your satellite tracking list
Your tracking list is empty




NASA's NSSDC Master Catalog

Two Line Element Set (TLE):
1 10392U 74089EH  19261.15621494 -.00000033  00000-0  62911-4 0  9994
2 10392 101.5554 333.3432 0050806 112.6629 303.8298 12.60078688 64565
Source of the keplerian elements: AFSPC